Weather in Pogar

Russia / Bryansk Oblast     52°33′15″N   33°15′47″E
temp.,
°C
wind,
m/s
gust,
m/s
humid.,
%
clouds,
%
prec.,
mm/h
press.,
hPa
HPBL,
m
16 september, thu
thu1600:00+7nnw34670 0.0 101952
03:00+6n33750 0.0 101941
06:00+4n33780 0.0 102031
09:00+9nne34570 0.0 1021320
12:00+14nnw33450 0.0 10201117
15:00+16nw33390 0.0 10191415
18:00+14n225098 0.0 101923
21:00+9ne2260100 0.0 102010
17 september, fri
fri1700:00+8e226758 0.0 101919
03:00+7e337370 0.0 101943
06:00+7ene2380100 0.4 101885
09:00+7e4693100 2.9 1017219
12:00+7ese5995100 3.8 1017344
15:00+8e5997100 12.9 1016370
18:00+8e5997100 4.1 1015376
21:00+8ene61197100 7.3 1015433
18 september, sat
sat1800:00+8e61296100 3.6 1015470
03:00+8e71496100 6.9 1015530
06:00+8e71596100 3.8 1014646
09:00+8e81597100 9.9 1014676
12:00+9e81795100 4.2 1014771
15:00+8e91796100 14.1 1014680
18:00+8e91996100 7.7 1013756
21:00+9ese112195100 12.9 1012770
19 september, sun
sun1900:00+10se101793100 3.7 1012815
03:00+10se71494100 4.3 1011702
06:00+10se51096100 0.2 1011475
09:00+11sse359686 0.3 1011291
12:00+14ssw237797 0.2 1011882
15:00+14wsw2379100 0.8 1011514
18:00+13nne228792 0.3 101026
21:00+11e4798100 0.3 1010206
20 september, mon
mon2000:00+11e489799 0.4 1009356
03:00+10e6998100 3.4 1008367
06:00+9ene71197100 6.8 1007492
09:00+8ene81497100 15.4 1007494
12:00+8ne71395100 5.8 1007682
15:00+7ne71396100 11.9 1007696
18:00+6ne71294100 1.8 1008600
21:00+5nne71295100 3.5 1008591